• In India
  • List of Countries
  • For 7 days
  • Water Temperature
  • Satellite Maps
  • Weather Map
  • Weather Widgets
  • user-avatar
    Login

    Hourly Weather Francistown

    Today, 11 December, Tuesday

    Time Temperature Precipitation Wind Pressure Humidity
    00:00 +20°C° 0.1 mm 8 mps 677 mmHg 83%
    01:00 +20°C° 0.1 mm 8 mps 677 mmHg 82%
    02:00 +18°C° 0 mm 7 mps 677 mmHg 80%
    03:00 +18°C° 0 mm 7 mps 677 mmHg 80%
    04:00 +17°C° 0 mm 7 mps 677 mmHg 81%
    05:00 +17°C° 0 mm 6 mps 677 mmHg 81%
    06:00 +19°C° 0 mm 6 mps 678 mmHg 78%
    07:00 +19°C° 0 mm 5 mps 678 mmHg 75%
    08:00 +20°C° 0 mm 5 mps 679 mmHg 70%
    09:00 +21°C° 0 mm 5 mps 678 mmHg 66%
    10:00 +22°C° 0 mm 5 mps 678 mmHg 62%
    11:00 +25°C° 0 mm 5 mps 678 mmHg 58%
    12:00 +26°C° 0 mm 5 mps 678 mmHg 53%
    13:00 +27°C° 0 mm 5 mps 678 mmHg 49%
    14:00 +29°C° 0 mm 5 mps 678 mmHg 44%
    15:00 +28°C° 0 mm 5 mps 677 mmHg 45%
    16:00 +28°C° 0 mm 5 mps 677 mmHg 46%
    17:00 +27°C° 0 mm 6 mps 677 mmHg 47%
    18:00 +26°C° 0 mm 5 mps 677 mmHg 53%
    19:00 +23°C° 0 mm 5 mps 677 mmHg 60%
    20:00 +22°C° 0 mm 5 mps 677 mmHg 66%
    21:00 +21°C° 0 mm 5 mps 678 mmHg 67%
    22:00 +20°C° 0 mm 5 mps 678 mmHg 69%
    23:00 +20°C° 0 mm 5 mps 678 mmHg 70%

    Tomorrow, 12 December, Wednesday

    Time Temperature Precipitation Wind Pressure Humidity
    00:00 +20°C° 0 mm 5 mps 678 mmHg 71%
    01:00 +19°C° 0 mm 4 mps 678 mmHg 71%
    02:00 +19°C° 0 mm 4 mps 677 mmHg 72%
    03:00 +19°C° 0 mm 4 mps 677 mmHg 72%
    04:00 +18°C° 0 mm 4 mps 677 mmHg 73%
    05:00 +18°C° 0 mm 3 mps 677 mmHg 74%
    06:00 +20°C° 0 mm 4 mps 677 mmHg 64%
    07:00 +22°C° 0 mm 4 mps 678 mmHg 54%
    08:00 +25°C° 0 mm 4 mps 678 mmHg 44%
    09:00 +27°C° 0 mm 4 mps 679 mmHg 36%
    10:00 +30°C° 0 mm 4 mps 679 mmHg 28%
    11:00 +33°C° 0 mm 4 mps 679 mmHg 20%
    12:00 +34°C° 0 mm 4 mps 678 mmHg 18%
    13:00 +35°C° 0 mm 4 mps 678 mmHg 16%
    14:00 +36°C° 0 mm 4 mps 678 mmHg 14%
    15:00 +36°C° 0 mm 4 mps 677 mmHg 15%
    16:00 +35°C° 0 mm 4 mps 677 mmHg 16%
    17:00 +35°C° 0 mm 4 mps 676 mmHg 16%
    18:00 +33°C° 0 mm 3 mps 677 mmHg 20%
    19:00 +30°C° 0 mm 3 mps 677 mmHg 24%
    20:00 +28°C° 0 mm 3 mps 677 mmHg 28%
    21:00 +27°C° 0 mm 3 mps 677 mmHg 31%
    22:00 +26°C° 0 mm 3 mps 678 mmHg 33%
    23:00 +26°C° 0 mm 3 mps 678 mmHg 36%

    Day after tomorrow, 13 December, Thursday

    Time Temperature Precipitation Wind Pressure Humidity
    00:00 +25°C° 0 mm 3 mps 677 mmHg 37%
    01:00 +25°C° 0 mm 3 mps 677 mmHg 39%
    02:00 +24°C° 0 mm 3 mps 676 mmHg 40%
    03:00 +24°C° 0 mm 3 mps 676 mmHg 41%
    04:00 +24°C° 0 mm 3 mps 676 mmHg 41%
    05:00 +22°C° 0 mm 3 mps 676 mmHg 41%
    06:00 +26°C° 0 mm 3 mps 677 mmHg 36%
    07:00 +28°C° 0 mm 3 mps 678 mmHg 31%
    08:00 +30°C° 0 mm 3 mps 679 mmHg 26%
    09:00 +33°C° 0 mm 3 mps 679 mmHg 23%
    10:00 +35°C° 0 mm 3 mps 679 mmHg 19%
    11:00 +37°C° 0 mm 2 mps 680 mmHg 16%
    12:00 +38°C° 0 mm 3 mps 679 mmHg 16%
    13:00 +40°C° 0 mm 4 mps 679 mmHg 15%
    14:00 +41°C° 0 mm 5 mps 678 mmHg 15%
    15:00 +40°C° 0 mm 6 mps 678 mmHg 16%
    16:00 +40°C° 0 mm 6 mps 677 mmHg 17%
    17:00 +39°C° 0 mm 7 mps 676 mmHg 19%
    18:00 +36°C° 0 mm 6 mps 677 mmHg 22%
    19:00 +34°C° 0 mm 5 mps 677 mmHg 26%
    20:00 +32°C° 0 mm 4 mps 677 mmHg 29%
    21:00 +32°C° 0 mm 4 mps 678 mmHg 30%
    22:00 +30°C° 0 mm 4 mps 678 mmHg 32%
    23:00 +29°C° 0 mm 4 mps 678 mmHg 33%

    14 December, Friday

    Time Temperature Precipitation Wind Pressure Humidity
    00:00 +29°C° 0 mm 4 mps 678 mmHg 34%
    01:00 +28°C° 0 mm 4 mps 678 mmHg 35%
    02:00 +27°C° 0 mm 4 mps 677 mmHg 37%
    03:00 +27°C° 0 mm 4 mps 677 mmHg 38%
    04:00 +26°C° 0 mm 3 mps 677 mmHg 40%
    05:00 +25°C° 0 mm 3 mps 677 mmHg 42%
    06:00 +27°C° 0 mm 4 mps 678 mmHg 40%
    07:00 +28°C° 0 mm 5 mps 679 mmHg 38%
    08:00 +30°C° 0 mm 6 mps 680 mmHg 36%
    09:00 +33°C° 0 mm 6 mps 680 mmHg 32%
    10:00 +34°C° 0 mm 6 mps 680 mmHg 28%
    11:00 +36°C° 0 mm 6 mps 680 mmHg 24%
    12:00 +38°C° 0 mm 7 mps 680 mmHg 22%
    13:00 +39°C° 0 mm 7 mps 679 mmHg 20%
    14:00 +39°C° 0 mm 7 mps 678 mmHg 18%
    15:00 +39°C° 0 mm 7 mps 678 mmHg 19%
    16:00 +38°C° 0 mm 7 mps 677 mmHg 20%
    17:00 +36°C° 0 mm 7 mps 677 mmHg 21%
    18:00 +34°C° 0 mm 7 mps 677 mmHg 26%
    19:00 +33°C° 0 mm 6 mps 678 mmHg 30%
    20:00 +30°C° 0 mm 5 mps 678 mmHg 34%
    21:00 +29°C° 0 mm 5 mps 678 mmHg 37%
    22:00 +28°C° 0 mm 5 mps 679 mmHg 40%
    23:00 +27°C° 0 mm 5 mps 679 mmHg 43%

    15 December, Saturday

    Time Temperature Precipitation Wind Pressure Humidity
    00:00 +27°C° 0 mm 4 mps 678 mmHg 46%
    01:00 +26°C° 0 mm 4 mps 678 mmHg 49%
    02:00 +25°C° 0 mm 4 mps 677 mmHg 52%
    03:00 +25°C° 0 mm 4 mps 677 mmHg 53%
    04:00 +23°C° 0 mm 4 mps 678 mmHg 55%
    05:00 +23°C° 0 mm 4 mps 678 mmHg 57%
    06:00 +25°C° 0 mm 5 mps 678 mmHg 55%
    07:00 +26°C° 0 mm 5 mps 679 mmHg 53%
    08:00 +27°C° 0 mm 6 mps 680 mmHg 51%
    09:00 +29°C° 0 mm 6 mps 680 mmHg 44%
    10:00 +32°C° 0 mm 5 mps 680 mmHg 36%
    11:00 +34°C° 0 mm 5 mps 680 mmHg 29%
    12:00 +35°C° 0 mm 5 mps 680 mmHg 26%
    13:00 +36°C° 0 mm 5 mps 679 mmHg 22%
    14:00 +39°C° 0 mm 5 mps 678 mmHg 19%
    15:00 +38°C° 0 mm 6 mps 678 mmHg 20%
    16:00 +36°C° 0 mm 6 mps 677 mmHg 21%
    17:00 +36°C° 0 mm 6 mps 677 mmHg 22%
    18:00 +34°C° 0 mm 5 mps 677 mmHg 27%
    19:00 +32°C° 0 mm 4 mps 677 mmHg 31%
    20:00 +29°C° 0 mm 3 mps 677 mmHg 35%
    21:00 +28°C° 0 mm 3 mps 677 mmHg 37%
    22:00 +28°C° 0 mm 3 mps 677 mmHg 40%
    23:00 +27°C° 0 mm 3 mps 677 mmHg 42%

    16 December, Sunday

    Time Temperature Precipitation Wind Pressure Humidity
    00:00 +26°C° 0 mm 3 mps 677 mmHg 45%
    01:00 +25°C° 0 mm 3 mps 677 mmHg 48%
    02:00 +25°C° 0 mm 2 mps 676 mmHg 50%
    03:00 +24°C° 0 mm 2 mps 677 mmHg 52%
    04:00 +24°C° 0 mm 2 mps 677 mmHg 53%
    05:00 +23°C° 0 mm 2 mps 677 mmHg 54%
    06:00 +25°C° 0 mm 4 mps 678 mmHg 49%
    07:00 +27°C° 0 mm 5 mps 679 mmHg 43%
    08:00 +29°C° 0 mm 6 mps 679 mmHg 38%
    09:00 +32°C° 0 mm 6 mps 679 mmHg 33%
    10:00 +34°C° 0 mm 6 mps 679 mmHg 28%
    11:00 +36°C° 0 mm 6 mps 679 mmHg 23%
    12:00 +38°C° 0 mm 6 mps 679 mmHg 21%
    13:00 +39°C° 0 mm 6 mps 678 mmHg 19%
    14:00 +40°C° 0 mm 7 mps 677 mmHg 18%
    15:00 +39°C° 0 mm 7 mps 677 mmHg 19%
    16:00 +39°C° 0 mm 7 mps 677 mmHg 20%
    17:00 +38°C° 0 mm 7 mps 676 mmHg 21%
    18:00 +35°C° 0 mm 6 mps 677 mmHg 25%
    19:00 +34°C° 0 mm 5 mps 677 mmHg 30%
    20:00 +32°C° 0 mm 5 mps 677 mmHg 35%
    21:00 +30°C° 0 mm 5 mps 677 mmHg 39%
    22:00 +29°C° 0 mm 5 mps 678 mmHg 43%
    23:00 +29°C° 0 mm 6 mps 678 mmHg 46%
    Show more